Weather History for KSJT - December, 2012

Change the Weather History Date:

Friday, December 28, 2012

  Actual Average Record
Temperature  
Mean Temperature 36 °F 46 °F  
Max Temperature 49 °F 59 °F 81 °F (1924)
Min Temperature 22 °F 33 °F 13 °F (1983)
Degree Days  
Heating Degree Days 29 19  
Month to date heating degree days 355 506  
Since 1 July heating degree days 660 906  
Cooling Degree Days 0 0  
Month to date cooling degree days 17 0  
Year to date cooling degree days 3243 2502  
Moisture  
Dew Point 20 °F    
Average Humidity 48    
Maximum Humidity 64    
Minimum Humidity 31    
Precipitation  
Precipitation 0.00 in 0.03 in 1.04 in (1979)
Month to date precipitation 0.03 0.76  
Year to date precipitation 21.81 21.16  
Snow  
Snow 0.00 in 0.00 in 0.30 in (1983)
Month to date snowfall 0.0 0.2  
Since 1 July snowfall T 0.5  
Snow Depth 0.00 in    
Sea Level Pressure  
Sea Level Pressure 30.05 in    
Wind  
Wind Speed 7 mph (WNW)    
Max Wind Speed 17 mph    
Max Gust Speed 21 mph    
Visibility 10 miles    
Events      
T = Trace of Precipitation, MM = Missing Value Source: NWS Daily Summary

Daily Weather History Graph

Daily Weather History Graph

Search for Another Location

Airport or City:

Trip Planner

Search our weather history database for the weather conditions in past years. The results will help you decide how hot, cold, wet, or windy it might be!

Date:

Astronomy

Dec. 28, 2012 Rise Set
Actual Time 7:40 AM CST 5:47 PM CST
Civil Twilight 7:13 AM CST 6:14 PM CST
Nautical Twilight 6:42 AM CST 6:44 PM CST
Astronomical Twilight 6:13 AM CST 7:14 PM CST
Moon 6:22 PM CST (12/28) 7:38 AM CST (12/28)
Length of Visible Light 11h 01m
Length of Day
10h 07m
Full, 100% of the Moon is Illuminated
Dec 28
Full
Jan 4
Last Quarter
Jan 11
New
Jan 18
First Quarter
Jan 26
Full

Hourly Weather History & Observations

Time (CST) Temp. Windchill Dew Point Humidity Pressure Visibility Wind Dir Wind Speed Gust Speed Precip Events Conditions
12:51 AM 30.9 °F 26.2 °F 19.0 °F 61% 29.82 in 10.0 mi West 4.6 mph - N/A   Clear
1:51 AM 30.0 °F 23.2 °F 19.9 °F 66% 29.82 in 10.0 mi SW 6.9 mph - N/A   Clear
2:51 AM 30.0 °F 25.2 °F 19.9 °F 66% 29.86 in 10.0 mi West 4.6 mph - N/A   Clear
3:51 AM 30.9 °F 24.3 °F 19.9 °F 64% 29.87 in 10.0 mi WSW 6.9 mph - N/A   Clear
4:51 AM 33.1 °F 25.5 °F 21.0 °F 61% 29.88 in 10.0 mi West 9.2 mph - N/A   Clear
5:51 AM 32.0 °F 25.6 °F 19.9 °F 61% 29.90 in 10.0 mi West 6.9 mph - N/A   Clear
6:51 AM 30.9 °F - 19.9 °F 64% 29.93 in 10.0 mi Calm Calm - N/A   Clear
7:51 AM 30.0 °F 25.2 °F 19.9 °F 66% 29.99 in 10.0 mi West 4.6 mph - N/A   Clear
8:51 AM 36.0 °F 27.1 °F 24.1 °F 62% 30.01 in 10.0 mi NNW 13.8 mph - N/A   Clear
9:51 AM 37.9 °F 30.0 °F 25.0 °F 60% 30.08 in 10.0 mi NNW 12.7 mph - N/A   Clear
10:51 AM 39.0 °F 31.0 °F 26.1 °F 60% 30.11 in 10.0 mi North 13.8 mph - N/A   Clear
11:51 AM 42.1 °F 36.6 °F 24.1 °F 49% 30.10 in 10.0 mi NW 9.2 mph 18.4 mph N/A   Clear
12:51 PM 44.1 °F 38.6 °F 23.0 °F 43% 30.08 in 10.0 mi WNW 10.4 mph - N/A   Clear
1:51 PM 46.0 °F 39.9 °F 23.0 °F 40% 30.06 in 10.0 mi NNW 13.8 mph - N/A   Clear
2:51 PM 48.0 °F - 21.9 °F 36% 30.06 in 10.0 mi NW 11.5 mph - N/A   Clear
3:51 PM 48.9 °F - 21.0 °F 33% 30.07 in 10.0 mi WNW 10.4 mph - N/A   Clear
4:51 PM 48.0 °F - 19.9 °F 33% 30.09 in 10.0 mi NNW 9.2 mph - N/A   Clear
5:51 PM 43.0 °F 38.8 °F 19.9 °F 40% 30.12 in 10.0 mi NNW 6.9 mph - N/A   Clear
7:51 PM 36.0 °F 30.3 °F 18.0 °F 48% 30.21 in 10.0 mi NW 6.9 mph - N/A   Clear
8:51 PM 33.1 °F - 17.1 °F 52% 30.22 in 10.0 mi Calm Calm - N/A   Clear
9:51 PM 33.1 °F - 16.0 °F 50% 30.23 in 10.0 mi Calm Calm - N/A   Clear
10:51 PM 27.0 °F - 12.9 °F 56% 30.26 in 10.0 mi Calm Calm - N/A   Clear
11:51 PM 23.0 °F 17.0 °F 12.9 °F 65% 30.28 in 10.0 mi South 4.6 mph - N/A   Clear